TimeCDT,TemperatureF,Dew PointF,Humidity,Sea Level PressureIn,VisibilityMPH,Wind Direction,Wind SpeedMPH,Gust SpeedMPH,PrecipitationIn,Events,Conditions,WindDirDegrees,DateUTC
12:56 AM,68.7,66.7,93,29.95,10.0,Calm,Calm,-,N/A,,Mostly Cloudy,0,2013-04-30 05:56:00
1:58 AM,67.5,66.0,95,29.95,10.0,Calm,Calm,-,N/A,,Scattered Clouds,0,2013-04-30 06:58:00
2:55 AM,67.1,65.8,96,29.95,10.0,Calm,Calm,-,N/A,,Partly Cloudy,0,2013-04-30 07:55:00
3:55 AM,64.8,63.9,97,29.95,10.0,Calm,Calm,-,N/A,,Scattered Clouds,0,2013-04-30 08:55:00
4:55 AM,63.1,62.4,97,29.95,10.0,Calm,Calm,-,N/A,,Partly Cloudy,0,2013-04-30 09:55:00
5:26 AM,64.4,62.6,94,29.94,10.0,ENE,4.6,-,N/A,,Mostly Cloudy,60,2013-04-30 10:26:00
5:55 AM,63.9,63.0,97,29.95,10.0,NNE,3.5,-,N/A,,Mostly Cloudy,30,2013-04-30 10:55:00
6:21 AM,64.4,62.6,94,29.95,10.0,Calm,Calm,-,N/A,,Mostly Cloudy,0,2013-04-30 11:21:00
6:55 AM,65.5,64.4,96,29.98,10.0,Calm,Calm,-,N/A,,Mostly Cloudy,0,2013-04-30 11:55:00
7:29 AM,68.0,66.2,94,29.98,7.0,ENE,3.5,-,N/A,,Scattered Clouds,70,2013-04-30 12:29:00
7:51 AM,68.0,66.2,94,29.98,10.0,ENE,4.6,-,N/A,,Mostly Cloudy,70,2013-04-30 12:51:00
7:55 AM,68.5,66.2,92,30.00,10.0,ENE,5.8,-,N/A,,Overcast,70,2013-04-30 12:55:00
8:17 AM,68.0,66.2,94,29.98,6.0,East,4.6,-,N/A,,Overcast,80,2013-04-30 13:17:00
8:55 AM,70.2,67.5,91,29.99,8.0,East,5.8,-,N/A,,Mostly Cloudy,80,2013-04-30 13:55:00
9:27 AM,71.6,68.0,88,29.98,10.0,ENE,4.6,-,N/A,,Scattered Clouds,60,2013-04-30 14:27:00
9:59 AM,74.5,67.1,78,29.99,10.0,East,6.9,-,N/A,,Scattered Clouds,90,2013-04-30 14:59:00
10:11 AM,75.2,68.0,78,29.98,10.0,SE,8.1,-,N/A,,Light Drizzle,130,2013-04-30 15:11:00
10:13 AM,75.2,68.0,78,29.98,10.0,SE,8.1,-,N/A,,Clear,130,2013-04-30 15:13:00
10:55 AM,76.3,68.0,75,30.00,10.0,SE,6.9,-,N/A,,Scattered Clouds,130,2013-04-30 15:55:00
11:54 AM,77.5,68.0,72,29.98,10.0,SE,6.9,-,N/A,,Scattered Clouds,140,2013-04-30 16:54:00
11:55 AM,77.5,68.0,72,29.98,10.0,SE,6.9,-,N/A,,Scattered Clouds,140,2013-04-30 16:55:00
12:55 PM,78.8,66.9,67,29.98,10.0,SSE,8.1,-,N/A,,Mostly Cloudy,150,2013-04-30 17:55:00
1:55 PM,80.2,65.5,61,29.97,10.0,SE,9.2,-,N/A,,Mostly Cloudy,140,2013-04-30 18:55:00
2:55 PM,81.0,64.0,56,29.95,10.0,South,12.7,-,N/A,,Mostly Cloudy,170,2013-04-30 19:55:00
3:55 PM,79.5,65.3,62,29.94,10.0,SSE,12.7,-,N/A,,Mostly Cloudy,160,2013-04-30 20:55:00
4:55 PM,76.8,68.2,75,29.94,10.0,SSE,8.1,-,N/A,,Overcast,150,2013-04-30 21:55:00
5:55 PM,74.1,68.5,83,29.95,10.0,SSE,8.1,-,N/A,,Overcast,150,2013-04-30 22:55:00
6:05 PM,73.4,69.8,88,29.95,10.0,SE,9.2,-,N/A,Rain,Light Rain Showers,140,2013-04-30 23:05:00
6:20 PM,73.4,69.8,88,29.95,10.0,SSE,5.8,-,N/A,,Overcast,150,2013-04-30 23:20:00
6:55 PM,73.4,68.4,84,29.96,10.0,ESE,8.1,-,0.00,,Overcast,110,2013-04-30 23:55:00
7:24 PM,73.4,68.0,83,29.96,10.0,ESE,6.9,-,N/A,Rain,Light Rain Showers,110,2013-05-01 00:24:00
7:33 PM,73.4,68.0,83,29.96,10.0,ESE,4.6,-,N/A,,Overcast,110,2013-05-01 00:33:00
7:55 PM,73.0,67.6,83,29.98,10.0,SE,5.8,-,0.00,,Overcast,140,2013-05-01 00:55:00
8:55 PM,73.4,67.3,81,29.98,10.0,East,5.8,-,N/A,,Overcast,100,2013-05-01 01:55:00
9:55 PM,73.4,68.0,83,29.98,10.0,East,5.8,-,N/A,,Overcast,100,2013-05-01 02:55:00
10:55 PM,72.9,67.6,84,29.97,10.0,East,4.6,-,N/A,,Overcast,80,2013-05-01 03:55:00
11:55 PM,72.3,67.8,86,29.96,10.0,ENE,4.6,-,N/A,,Overcast,60,2013-05-01 04:55:00